Location: Dover
(48.8500°N, 53.9833°W)
Time: 17:32:27
(UTC+00:00)

Timation 2 Rocket - Pass Details

Date: 14 November 2025
Orbit: 904 x 1074 km, 70.0° (Epoch: 10 December)

Event Time Altitude Azimuth Distance (km) Brightness Sun altitude
Rises 22:26:37 0° 217° (SW) 3,842 7.6 -24.6°
Reaches altitude 10° 22:29:15 10° 219° (SW) 2,899 6.9 -25.0°
Maximum altitude 22:36:05 69° 303° (WNW) 1,143 4.4 -26.2°
Enters shadow 22:40:29 24° 22° (NNE) 2,064 5.5 -26.9°
